This demonstration page uses our WeatherBlox Daily Observations layout. Learn more.

39.92423, -83.80882

Hourly Observations for May 26, 2016

Temp ( °F °C ) Dew Point ( °F °C ) Humidity (%) Winds ( mph kmh ) Pressure ( in mb ) Visibility ( mi km ) Precip ( " mm )
12:56 am 00:56 Clear 70 21.1 64 17.7 81 81 S 5 7 30.05 1018 10 16.0934 0 0
1:56 am 01:56 Clear 69 20.5 64 17.7 84 84 SSW 7 11 30.05 1018 10 16.0934 0 0
2:56 am 02:56 Mostly Clear 68 20 65 18.3 90 90 SSW 8 13 30.06 1018 10 16.0934 0 0
3:56 am 03:56 Clear 67 19.4 64 17.7 90 90 S 5 7 30.05 1018 10 16.0934 0 0
4:56 am 04:56 Clear 67 19.4 64 17.7 90 90 S 6 9 30.06 1018 10 16.0934 0 0
5:56 am 05:56 Clear 67 19.4 64 17.7 90 90 S 5 7 30.04 1017 10 16.0934 0 0
6:56 am 06:56 Sunny 67 19.4 64 17.7 90 90 SSW 6 9 30.05 1018 10 16.0934 0 0
7:56 am 07:56 Sunny 68 20 64 17.7 87 87 SSW 9 15 30.06 1018 10 16.0934 0 0
8:15 am 08:15 Mostly Cloudy 68 20 64 18 88 88 SSW 9 15 30.06 1018 10 16.0934 0 0
8:56 am 08:56 Cloudy 69 20.5 64 17.7 84 84 SSW 8 13 30.06 1018 10 16.0934 0 0
9:56 am 09:56 Mostly Cloudy 71 21.6 65 18.3 82 82 SSW 8 13 30.06 1018 10 16.0934 0 0
10:56 am 10:56 Cloudy 74 23.3 66 18.8 76 76 SSW 10 17 30.06 1018 10 16.0934 0 0
11:56 am 11:56 Cloudy 75 23.8 66 18.8 74 74 SSW 9 15 30.06 1018 10 16.0934 0 0
12:56 pm 12:56 Cloudy 76 24.4 66 18.8 71 71 SSW 12 19 30.06 1018 10 16.0934 0 0
1:42 pm 13:42 Partly Cloudy 81 27 66 19 62 62 S 12 19 30 1016 10 16.0934 0 0
1:56 pm 13:56 Mostly Cloudy 79 26.1 66 18.8 64 64 S 12 19 30.04 1017 10 16.0934 0 0
2:15 pm 14:15 Mostly Cloudy 81 27 66 19 62 62 S 10 17 30 1016 10 16.0934 0 0
2:56 pm 14:56 Mostly Cloudy 79 26.1 67 19.4 67 67 S 9 15 30.02 1017 10 16.0934 0 0
3:56 pm 15:56 Mostly Cloudy 81 27.2 67 19.4 62 62 S 7 11 30 1016 10 16.0934 0 0
4:56 pm 16:56 Mostly Sunny 81 27.2 68 20 65 65 S 14 22 29.97 1015 10 16.0934 0 0
5:56 pm 17:56 Mostly Sunny 80 26.6 68 20 67 67 S 12 19 29.98 1015 10 16.0934 0 0
6:56 pm 18:56 Partly Cloudy 79 26.1 69 20.5 71 71 S 12 19 29.97 1015 10 16.0934 0 0
7:56 pm 19:56 Sunny 76 24.4 66 18.8 71 71 SSW 7 11 29.96 1015 10 16.0934 0 0
8:56 pm 20:56 Clear 73 22.7 63 17.2 71 71 S 7 11 29.97 1015 10 16.0934 0 0
9:56 pm 21:56 Clear 70 21.1 63 17.2 79 79 S 5 7 30 1016 10 16.0934 0 0
10:56 pm 22:56 Clear 69 20.5 64 17.7 84 84 SSW 6 9 30.03 1017 10 16.0934 0 0
11:56 pm 23:56 Clear 67 19.4 64 17.7 90 90 S 5 7 30.02 1017 10 16.0934 0 0

Powered by AerisWeather